Regional Weather Roundup
Issued by NWS Charleston, SC

Current Version | Previous Version | Graphics & Text | Print | Product List | Glossary On
Versions: 1 2 3 4 5 6 7 8 9 10 11 12 13 14 15 16 17 18 19 20 21 22 23 24 25 26 27 28 29 30 31 32 33 34 35 36 37 38 39 40 41 42 43 44 45 46 47 48 49 50
000
ASUS42 KCHS 220727
RWRCHS

REGIONAL WEATHER ROUNDUP
NATIONAL WEATHER SERVICE CHARLESTON SC
300 AM EDT THU JUN 22 2017

NOTE: "FAIR" INDICATES FEW OR NO CLOUDS BELOW 12,000 FEET WITH NO
SIGNIFICANT WEATHER AND/OR OBSTRUCTIONS TO VISIBILITY.

NOT ALL STATIONS ARE QUALITY CONTROLLED. USE DATA WITH CAUTION...
ESPECIALLY DEWPOINT OBSERVATIONS.

SCZ027-030-031-034>040-042>050-220800-
...SOUTHEAST SOUTH CAROLINA...

CITY           SKY/WX    TMP DP  RH WIND       PRES   REMARKS
N CHARLESTON   CLOUDY    77  75  93 S3        30.08F
WATERFRONT PRK   N/A     79  78  97 S5        30.07F
JOHNS ISLAND   FAIR      79  77  94 CALM      30.08F
PINOPOLIS        N/A     75  75 100 CALM      30.02F
MONCKS CORNER  FAIR      73  72  94 CALM      30.08F FOG
SUMMERVILLE    FAIR      73  73 100 CALM      30.09F
BEAUFORT MCAS  CLOUDY    79  79 100 S3        30.08F
BEAUFORT ARPT  PTSUNNY   79  77  94 S6        30.07F FOG
HILTON HEAD IS CLOUDY    81  79  94 S7G14     30.08F
WALTERBORO     LGT RAIN  73  73 100 CALM      30.08F
ALLENDALE      CLOUDY    75  75 100 CALM      30.07F FOG

...SOUTHERN MIDLANDS AND PEE DEE...

CITY           SKY/WX    TMP DP  RH WIND       PRES   REMARKS
GEORGETOWN     FAIR      73  73 100 CALM      30.10F
KINGSTREE      CLOUDY    72  72 100 CALM      30.09S
ORANGEBURG     CLOUDY    76  75  97 S3        30.09F FOG
BARNWELL       CLOUDY    77  77 100 CALM      30.09F FOG
AIKEN          FAIR      72  72 100 CALM      30.13S
MANNING        FAIR      73  73 100 W6        30.09F
COLUMBIA       MOCLDY    76  72  87 CALM      30.09S
SUMTER         CLOUDY    75  73  94 SW3       30.07F
FLORENCE       PTCLDY    73  73 100 SW6       30.09F
MYRTLE BEACH   CLOUDY    78  76  93 SW3       30.11R
N MYRTLE BEACH CLOUDY    78  77  96 SW7       30.08S

$$

GAZ063-065-086>088-099>101-113>116-118-119-134>141-150-220800-
...SOUTHEAST GEORGIA...

CITY           SKY/WX    TMP DP  RH WIND       PRES   REMARKS
SAVANNAH ARPT  MOCLDY    76  73  91 SE3       30.08F
HUNTER AAF     MOCLDY    77  73  88 CALM      30.05F
FORT STEWART   MOCLDY    77  75  94 CALM      30.04F
STATESBORO     CLOUDY    76  76 100 CALM      30.07F FOG
SYLVANIA       CLOUDY    76  76 100 CALM      30.09F FOG
CLAXTON        CLOUDY   N/A N/A N/A CALM      30.07F

...CSRA...CENTRAL AND FAR SOUTHEAST GEORGIA...

CITY           SKY/WX    TMP DP  RH WIND       PRES   REMARKS
THOMSON        CLOUDY    74  71  93 CALM      30.15F
AUGUSTA-BUSH   LGT RAIN  76  73  91 CALM      30.08F
AUGUSTA-DANIEL CLOUDY    76  70  82 SE3       30.10F
SWAINSBORO     CLOUDY    75  75 100 CALM      30.08F
VIDALIA        CLOUDY    77  77 100 E3        30.07F FOG
EASTMAN        PTSUNNY   78  78 100 E5        30.08F
HAZLEHURST     FAIR      78  78 100 CALM      30.05F
ALMA           MOCLDY    76  74  93 CALM      30.05F
WAYCROSS       CLOUDY    77  77 100 CALM      30.05F
JESUP          CLOUDY    79  73  83 CALM      30.06S FOG
BAXLEY         FAIR      77  77 100 CALM      30.05F FOG
BRUNSWICK      CLOUDY    79  79 100 CALM      30.06F
SAINT SIMONS   CLOUDY    79  76  90 CALM      30.05F

$$

SCZ027-028-034-036>038-045-046-048>050-GAZ119-141-220800-
...LAKE AND SUPPLEMENTAL COASTAL OBSERVATIONS...

STATION/POSITION TIME  TEMP    WIND        PRES    WAVE   SWELL
                       AIR SEA DIR/SP/G            HT/PER HT/PER/DIR
                 (UTC) (F)     (DEG/KT/KT) (MB)    (FT/S) (FT/S/D)
WINYAH BAY       0645   78     230/  4     1019.0S
LAKE MURRAY      0650   77     210/  5/  8 1017.9F
ACE BASIN NERRS  0645   80        CALM     1019.0S
FORT PULASKI     0700   80 83  170/  4/  6 1018.6
SAPELO ISLAND    0700   80     160/  6     1018.0

$$

ANZ835-935-AMZ111-154-330-350-352-354-370-450-454-472-220800-
...C-MAN AND BUOY OBSERVATIONS...

STATION/POSITION TIME  TEMP    WIND        PRES    WAVE   SWELL
                       AIR SEA DIR/SP/G            HT/PER HT/PER/DIR
                 (UTC) (F)     (DEG/KT/KT) (MB)    (FT/S) (FT/S/D)
BUOY 41004       0710   80 81  210/ 10/ 12 1018.5
BUOY 41008       0650   81 81  150/ 10/ 12 1017.9F   3/ 7   2/110/ 7
FOLLY BEACH CMAN 0700   81     200/ 10/ 12 1019.3F
CAPERS NEARSHORE 0708   84 82  220/ 12/ 16 1018.5F
FRIPP NEARSHORE  0708   81 82  200/ 12/ 16 1017.8F


STATION/POSITION TIME  TEMP    WIND        PRES    WAVE   SWELL
                       AIR SEA DIR/SP/G            HT/PER HT/PER/DIR
                 (UTC) (F)     (DEG/KT/KT) (MB)    (FT/S) (FT/S/D)
5E ST. MARYS GA  0700      80                N/A     3/ 8
FRYING PAN BUOY  0710   80 81  200/ 12/ 14 1018.8
BUOY 41025       0650   79 80  230/ 16/ 17 1018.1F   3/ 7   2/170/ 7
CAPE LOOKOUT NC  0700   78     230/  6/  8 1018.3F
BUOY 41002       0650   81 82  200/ 14/ 16 1020.6F   4/ 7   3/110/ 7
BUOY 41010       0710   82 82  160/ 12/ 14 1019.3
ST AUGUSTINE FL  0700   76 77  130/  3/  3 1019.0F


$$




USA.gov is the U.S. government's official web portal to all federal, state and local government web resources and services.